Location: Munkebjergskolens Observatorium
(55.3864°N, 10.3987°E)
Time: 22:50:00
(UTC+01:00)

Envisat - Pass Details

Date: 03 December 2022
Orbit: 763 x 765 km, 98.2° (Epoch: 01 February)

Event Time Altitude Azimuth Distance (km) Brightness Sun altitude
Rises 05:17:01 0° 13° (NNE) 3,249 6.4 -25.2°
Reaches altitude 10° 05:19:21 10° 11° (N) 2,318 5.6 -24.9°
Enters shadow 05:23:49 58° 324° (NW) 898 3.1 -24.2°
